Location: Unspecified
(38.9820°N, 0.0000°E)
Time: 04:05:56
(UTC+00:00)

Tiangong 2 - Pass Details

Date: 01 June 2019
Orbit: 376 x 389 km, 42.8° (Epoch: 17 June)

Event Time Altitude Azimuth Distance (km) Brightness Sun altitude
Rises 20:11:12 0° 285° (WNW) 2,242 6.3 -9.2°
Reaches altitude 10° 20:13:24 10° 274° (W) 1,386 4.8 -9.5°
Maximum altitude 20:16:11 30° 211° (SSW) 705 2.3 -9.9°
Enters shadow 20:18:21 14° 153° (SSE) 1,163 2.9 -10.2°
